Regional Weather Roundup
Issued by NWS Cleveland, OH

Home | Current Version | Previous Version | Graphics & Text | Print | Product List | Glossary On
Versions: 1 2 3 4 5 6 7 8 9 10 11 12 13 14 15 16 17 18 19 20 21 22 23 24 25 26 27 28 29 30 31 32 33 34 35 36 37 38 39 40 41 42 43 44 45 46 47 48 49 50
454
ASUS41 KCLE 280310
RWRCLE
OHIO REGIONAL WEATHER ROUNDUP
NATIONAL WEATHER SERVICE CLEVELAND, OH
1100 PM EDT TUE JUN 27 2017

NOTE: "FAIR" INDICATES FEW OR NO CLOUDS BELOW 12,000 FEET WITH NO
SIGNIFICANT WEATHER AND/OR OBSTRUCTIONS TO VISIBILITY.

OHZ001>008-015>018-024>027-034-035-043-044-280400-
   NORTHWEST OHIO

CITY           SKY/WX    TMP DP  RH WIND       PRES   REMARKS
DEFIANCE       CLEAR     57  49  74 CALM      30.09R
FINDLAY        CLEAR     59  48  67 S6        30.08R
TOLEDO EXPRESS CLEAR     59  52  77 SW3       30.07R
TOLEDO EXEC    MOCLDY    64  51  62 SW6       30.08R
LIMA           CLEAR     59  50  72 S7        30.10R
$$

OHZ009>014-019>023-028>033-038-089-280400-
   NORTHEAST OHIO

CITY           SKY/WX    TMP DP  RH WIND       PRES   REMARKS
CLE-HOPKINS    PTCLDY    64  45  49 S8        30.10R
CLE-LAKEFRONT  PTCLDY    65  42  43 S7        30.07R
CUY CO. ARPT   PTCLDY    61  45  55 S6        30.09R
LORAIN-ELYRIA  MOCLDY    59  44  57 SW7       30.09R
ASHTABULA      CLOUDY    56  52  86 CALM      30.10R
AKRON-CANTON   CLEAR     60  44  55 SW5       30.11R
WOOSTER        CLEAR     57  49  74 SW3       30.12R
MANSFIELD      MOCLDY    58  48  69 S7        30.12R
YOUNGSTOWN     PTCLDY    52  45  77 SW3       30.10R
$$

OHZ042-051>053-060>062-070>072-077>081-280400-
  SOUTHWEST OHIO

CITY           SKY/WX    TMP DP  RH WIND       PRES   REMARKS
CINC-COVINGTON PTCLDY    63  51  65 CALM      30.12R
CINC-LUNKEN    CLEAR     58  53  84 CALM      30.12R
HAMILTON       CLEAR     56  53  90 CALM      30.12R
DAYTON         CLEAR     61  46  57 SW3       30.13R
WRIGHT-PAT AFB CLEAR     57  52  81 CALM      30.12R
DAYTON GENERAL CLEAR     61  48  62 CALM      30.12R
WILMINGTON     CLEAR     58  50  75 CALM      30.13R
$$

OHZ036-037-039>041-045>050-054>059-063>069-073>076-082>088-280400-
  CENTRAL AND SOUTHEAST OHIO

CITY           SKY/WX    TMP DP  RH WIND       PRES   REMARKS
COLUMBUS       CLEAR     60  47  61 CALM      30.11R
OSU AIRPORT    CLEAR     60  45  57 CALM      30.11R
BOLTON FIELD   CLEAR     58  47  65 CALM      30.13R
RICKENBACK AFB CLEAR     58  48  67 CALM      30.11R
NEWARK         CLEAR     54  50  86 CALM      30.12R
MARION         CLEAR     60  46  59 SW5       30.11R
LANCASTER      CLEAR     54  51  90 CALM      30.13R
ZANESVILLE     CLEAR     59  48  67 CALM      30.12R
NEW PHILLY     NOT AVBL
$$




USA.gov is the U.S. government's official web portal to all federal, state and local government web resources and services.